Regional Weather Roundup
Issued by NWS

Home | Current Version | Previous Version | Text Only | Print | Product List | Glossary Off
Versions: 1 2 3 4 5 6 7 8 9 10 11 12 13 14 15 16 17 18 19 20 21 22 23 24 25 26 27 28 29 30 31 32 33 34 35 36 37 38 39 40 41 42 43 44 45 46 47 48 49 50

000
ASUS43 KLOT 220306
RWRIL

ILLINOIS REGIONAL WEATHER ROUNDUP
NATIONAL WEATHER SERVICE CHICAGO/ROMEOVILLE IL
900 PM CST SUN DEC 21 2014

NOTE: "FAIR" INDICATES FEW OR NO CLOUDS BELOW 12,000 FEET WITH NO
SIGNIFICANT WEATHER AND/OR OBSTRUCTIONS TO VISIBILITY.

* THESE STATIONS ARE NOT UNDER NWS QUALITY CONTROL. THEY ALSO MAY NOT
  REPORT WEATHER SUCH AS PRECIPITATION OR FOG.

ILZ001-002-007-009-015-016-024-220400-
NORTHWEST ILLINOIS

CITY           SKY/WX    TMP DP  RH WIND       PRES   REMARKS
MOLINE         MIX PCPN  36  31  82 SE13      29.95S WCI  27
STERLING*      CLOUDY    36  28  75 SE9G16    29.98F WCI  29
SAVANNA*       CLOUDY    36  31  82 SE14G22   29.96F WCI  27
$$

ILZ003-004-008-010-011-017-018-220400-
NORTH CENTRAL ILLINOIS

CITY           SKY/WX    TMP DP  RH WIND       PRES   REMARKS
ROCKFORD       CLOUDY    35  29  78 SE14      30.01F WCI  26
FREEPORT*      CLOUDY    34  30  86 S16       29.99F WCI  23
ROCHELLE*      MOCLDY    33  31  92 SE14      30.00F WCI  23
DE KALB*       CLOUDY    33  30  86 SE14      30.01S WCI  24
PERU*          CLOUDY    37  31  81 SE15G23   30.01F WCI  27
$$

ILZ005-006-012>014-019>023-220400-
NORTHEAST ILLINOIS

CITY           SKY/WX    TMP DP  RH WIND       PRES   REMARKS
CHICAGO-OHARE  CLOUDY    34  28  79 SE10      30.04F WCI  26
CHICAGO-MIDWAY CLOUDY    36  29  75 SE10      30.06F WCI  28
AURORA         CLOUDY    35  29  78 SE13      30.03F WCI  26
LANSING*       PTCLDY    32  28  85 SE9       30.07F WCI  25
JOLIET*        MOCLDY    32  29  88 SE8       30.06S FOG     WCI  25
WAUKEGAN       CLOUDY    35  30  82 SE14      30.03F WCI  26
DUPAGE AIRPORT MOCLDY    34  29  82 SE8       30.02F WCI  27
KANKAKEE*      MOCLDY    32  29  89 SE8       30.07S WCI  24
WHEELING       MOCLDY    35  28  75 S12       30.05F WCI  27
MORRIS*        CLOUDY    33  31  94 SE7       30.04S WCI  26
ROMEOVILLE*    MOCLDY    33  29  87 S13       30.05S WCI  24
NORTHERLY ISL    N/A     34  30  86 SE14        N/A  WCI  25
$$

LMZ740>746-220400-
SOUTHERN LAKE MICHIGAN

STATION/POSITION SKY/WX   TEMP    WIND        PRES    VSBY  WAVE
                          AIR SEA DIR/SP/G                  HT/PER
                          (F)     (DEG/KT/KT) (MB)    (MI)  (FT/S)
WAUKEGAN HARBOR            36     150/ 21/ 23   N/A
HARRISON CRIB              35     150/ 21/ 27   N/A
BURNHAM HARBOR             34     140/ 11/ 15   N/A
CALUMET HARBOR             34     140/  9/ 14 1016.9F
$$

ILZ025>027-034>036-040-047-049-050-058-095>099-220400-
WEST-CENTRAL ILLINOIS

CITY           SKY/WX    TMP DP  RH WIND       PRES   REMARKS
QUINCY         CLOUDY    40  33  76 SE10      29.91F
GALESBURG*     DRIZZLE   35  32  88 SE8       29.95F WCI  29
MACOMB*        CLOUDY    37  33  87 SE12      29.97F WCI  29
JACKSONVILLE*  CLOUDY    40  32  73 SE9       29.96F
PITTSFIELD*    CLOUDY    40  34  79 SE10      29.95F
$$

ILZ028>032-037-038-041>044-048-051>054-059>061-220400-
CENTRAL ILLINOIS

CITY           SKY/WX    TMP DP  RH WIND       PRES   REMARKS
PONTIAC        CLOUDY    33  31  94 SE7       30.04F WCI  26
BLOOMINGTON    CLOUDY    33  30  89 S12       30.02F WCI  24
DECATUR        MOCLDY    35  30  82 SE13      30.03F WCI  26
PEORIA         CLOUDY    38  29  70 SE7       30.00F WCI  33
LACON*         CLOUDY    35  29  80 SE12      30.00F WCI  27
LINCOLN*       CLOUDY    37  32  84 S7        30.02F WCI  31
SPRINGFIELD    CLOUDY    39  30  70 SE16      30.00F WCI  30
TAYLORVILLE    CLOUDY    36  30  80 SE10      30.01F WCI  28
$$

ILZ033-039-045-046-055>057-062-063-220400-
EAST-CENTRAL ILLINOIS

CITY           SKY/WX    TMP DP  RH WIND       PRES   REMARKS
CHAMPAIGN      PTCLDY    31  28  89 SE10      30.04F WCI  22
DANVILLE*      PTCLDY    31  28  88 SE9       30.04F WCI  23
RANTOUL*       PTCLDY    32  30  91 SE12      30.05F WCI  23
MATTOON        MOCLDY    33  28  81 SE8       30.04F WCI  26
PARIS*         PTCLDY    32  30  92 SE7       30.07F WCI  26
$$

ILZ079-100>102-220400-
SOUTHWEST ILLINOIS

CITY           SKY/WX    TMP DP  RH WIND       PRES   REMARKS
BELLEVILLE     CLOUDY    40  34  77 SE6       29.99
CAHOKIA*       CLOUDY    43  32  65 SE16      29.98F
SPARTA*        CLOUDY    39  31  73 SE12      30.00F WCI  32
$$

ILZ064>066-069>071-074>076-080>082-084>086-088>090-092>094-220400-
SOUTH-CENTRAL ILLINOIS

CITY           SKY/WX    TMP DP  RH WIND       PRES   REMARKS
CARBONDALE     CLOUDY    35  29  78 E6        30.01F WCI  30
CAIRO*         CLOUDY    42  34  74 E5        30.00F HAZE
EFFINGHAM*     PTCLDY    33  27  79 E7        30.06F WCI  27
MARION         MOCLDY    37  30  75 E6        30.02F WCI  33
MT. VERNON     CLEAR     34  25  69 E7        30.02F WCI  28
CENTRALIA*     PTCLDY    36  29  76 SE7       30.02F WCI  30
SALEM*         FAIR      38  31  76 E7        30.02F WCI  32
METROPOLIS*    MOCLDY    35  31  88 E3        30.01F
$$

ILZ067-068-072-073-078-083-087-091-220400-
SOUTHEAST ILLINOIS

CITY           SKY/WX    TMP DP  RH WIND       PRES   REMARKS
LAWRENCEVILLE  MOCLDY    32  28  85 E9        30.07F FOG     WCI  24
FLORA*         MOCLDY    33  29  85 E3        30.06S
FAIRFIELD*     CLEAR     34  29  83 CALM      30.05S
HARRISBURG*    CLEAR     34  30  84 E6        30.04F WCI  29
ROBINSON*      PTCLDY    33  29  87 SE8       30.08F WCI  26
CARMI*         PTCLDY    31  29  94 CALM      30.06R
$$

ABBREVIATIONS USED IN REMARKS
   TC - TEMPERATURE IN CELSIUS
  WCI - WIND CHILL INDEX
   HX - HEAT INDEX
  VSB - VISIBILITY
$$




USA.gov is the U.S. government's official web portal to all federal, state and local government web resources and services.